DateTimeUTC,F1_A11,F1_S11,BsB_S11,BsG_S11,BsR_S11,BbsB_S11,BbsG_S11,BbsR_S11,BaB_A11,BaG_A11,BaR_A11,Tu_S11,T_S11,Uu_S11,U_S11,P_S11,T1_A11
2021-01-26T02:00:00Z,00000200,21000000,,,,,,,-000.34,-000.11,-000.14,15.5,22.9,,00.0,0641.7,30.9
2021-01-26T02:01:00Z,00000200,21000000,,,,,,,-000.17,-000.39,-000.19,15.5,22.9,,00.0,0641.7,30.9
2021-01-26T02:02:00Z,00000200,21000000,,,,,,,0000.14,0000.38,0000.09,15.5,23.0,,00.0,0641.7,30.9
2021-01-26T02:03:00Z,00000200,61000000,,,,,,,0000.65,0000.50,0000.30,15.5,23.0,,00.0,0641.7,30.9
2021-01-26T02:04:00Z,00000200,41000000,0001.49,0001.63,0001.03,-000.11,0000.45,-000.01,0000.78,0000.81,0000.92,15.8,22.8,,00.0,0642.5,30.9
2021-01-26T02:05:00Z,00000200,01000000,0001.98,0001.59,0001.19,0000.79,0000.16,0000.12,0000.69,0000.68,0000.64,15.9,22.7,,00.0,0642.6,30.9
2021-01-26T02:06:00Z,00000200,01000000,0002.08,0001.80,0001.40,0000.43,0000.13,0000.30,0001.19,0000.90,0000.49,15.9,22.8,,00.0,0642.6,30.9
2021-01-26T02:07:00Z,00000200,01000000,0002.15,0001.52,0000.84,0000.29,-000.01,0000.06,0000.94,0000.63,0000.52,16.0,22.7,,00.0,0642.6,30.9
2021-01-26T02:08:00Z,00000200,01000000,0001.85,0001.60,0001.16,-000.04,0000.12,0000.20,0000.89,0000.82,0000.79,16.0,22.7,,00.0,0642.6,30.9
2021-01-26T02:09:00Z,00000200,01000000,0002.37,0001.93,0000.96,0000.49,0000.25,-000.16,0000.99,0000.62,0000.44,15.9,22.7,,00.0,0642.6,30.9
2021-01-26T02:10:00Z,00000200,01000000,0000.98,0001.45,0000.94,0000.54,0000.33,0000.23,0000.81,0000.96,0000.65,15.9,22.7,,00.0,0642.5,30.9
2021-01-26T02:11:00Z,00000200,01000000,0001.79,0001.53,0001.21,0001.15,0000.35,-000.19,0001.26,0001.26,0000.66,15.8,22.6,,00.0,0642.6,30.9
2021-01-26T02:12:00Z,00000200,01000000,0002.20,0001.65,0001.24,0000.40,0000.11,0000.14,0000.96,0000.54,0000.69,15.7,22.6,,00.0,0642.6,30.9
2021-01-26T02:13:00Z,00000200,01000000,0002.18,0001.17,0001.15,0000.72,0000.20,0000.06,0000.45,0000.16,0000.34,15.6,22.5,,00.0,0642.6,30.8
2021-01-26T02:14:00Z,00000200,01000000,0002.51,0001.83,0001.01,0000.35,0000.22,0000.16,0001.43,0001.55,0001.05,15.6,22.5,,00.0,0642.6,30.8
2021-01-26T02:15:00Z,00000200,01000000,0002.42,0001.73,0000.92,-000.18,0000.19,0000.08,0000.59,0000.79,0000.84,15.6,22.5,,00.0,0642.7,30.8
2021-01-26T02:16:00Z,00000200,01000000,0002.00,0001.53,0000.97,0000.39,0000.22,0000.15,0000.98,0000.75,0000.40,15.6,22.5,,00.0,0642.7,30.8
2021-01-26T02:17:00Z,00000200,01000000,0001.80,0001.43,0000.89,0000.52,0000.22,0000.39,0000.60,0000.75,0000.17,15.6,22.5,,00.0,0642.8,30.9
2021-01-26T02:18:00Z,00000200,01000000,0001.89,0001.55,0001.14,0000.17,0000.37,0000.15,0000.72,0000.58,0000.99,15.7,22.5,,00.0,0642.8,30.9
2021-01-26T02:19:00Z,00000200,01000000,0001.57,0001.46,0000.99,0000.12,0000.30,0000.06,0001.43,0001.29,0000.47,15.7,22.5,,00.0,0642.7,30.9
2021-01-26T02:20:00Z,00000200,01000000,0001.54,0001.84,0001.07,0000.54,0000.26,0000.13,0001.06,0000.91,0001.22,15.7,22.5,,00.0,0642.7,30.9
2021-01-26T02:21:00Z,00000200,01000000,0001.37,0001.62,0001.05,0000.56,0000.08,0000.30,0001.29,0001.72,0000.42,15.7,22.5,,00.0,0642.6,30.9
2021-01-26T02:22:00Z,00000200,01000000,0001.61,0001.82,0001.06,0000.54,0000.48,0000.24,0001.10,0000.72,0001.16,15.8,22.6,,00.0,0642.6,30.9
2021-01-26T02:23:00Z,00000200,01000000,0001.79,0001.37,0001.26,0000.38,0000.15,0000.30,0001.31,0000.99,0000.74,15.8,22.6,,00.0,0642.6,30.9
2021-01-26T02:24:00Z,00000200,01000000,0001.61,0001.46,0001.35,0000.40,0000.32,0000.23,0001.31,0000.92,0000.87,15.9,22.6,,00.0,0642.6,30.9
2021-01-26T02:25:00Z,00000200,01000000,0001.85,0001.20,0001.04,0000.89,0000.39,0000.03,0001.04,0001.51,0000.94,15.9,22.6,,00.0,0642.6,30.9
2021-01-26T02:26:00Z,00000200,01000000,0001.65,0001.72,0001.00,0000.00,0000.05,0000.17,0001.39,0001.19,0000.75,15.9,22.6,,00.0,0642.6,30.9
2021-01-26T02:27:00Z,00000200,01000000,0001.62,0001.25,0000.87,0000.65,0000.26,0000.07,0001.36,0000.73,0001.03,15.9,22.6,,00.0,0642.5,30.9
2021-01-26T02:28:00Z,00000200,01000000,0001.62,0001.42,0000.97,0001.39,0000.23,0000.13,0000.89,0001.06,0000.39,15.9,22.6,,00.0,0642.5,30.9
2021-01-26T02:29:00Z,00000200,01000000,0001.82,0001.69,0001.07,0000.32,0000.26,0000.27,0001.12,0000.87,0000.67,15.9,22.6,,00.0,0642.4,30.9
2021-01-26T02:30:00Z,00000200,01000000,0002.30,0001.73,0000.83,0000.13,0000.13,0000.22,0001.34,0001.44,0000.96,15.9,22.6,,00.0,0642.4,30.9
2021-01-26T02:31:00Z,00000200,01000000,0001.84,0001.44,0000.94,0000.50,0000.12,0000.14,0000.62,0000.31,0000.57,15.9,22.6,,00.0,0642.5,30.9
2021-01-26T02:32:00Z,00000200,01000000,0001.35,0001.95,0001.28,0000.71,0000.22,0000.03,0000.67,0000.54,0000.32,15.9,22.6,,00.0,0642.5,30.9
2021-01-26T02:33:00Z,00000200,01000000,0001.64,0001.84,0000.98,0000.52,0000.17,0000.16,0000.82,0000.93,0000.78,16.0,22.6,,00.0,0642.5,30.9
2021-01-26T02:34:00Z,00000200,01000000,0001.67,0001.55,0000.92,0000.56,-000.05,-000.01,0001.18,0001.23,0000.50,16.0,22.6,,00.0,0642.4,30.9
2021-01-26T02:35:00Z,00000200,01000000,0001.74,0001.44,0000.66,0000.66,0000.36,0000.07,0000.94,0000.70,0000.83,16.0,22.6,,00.0,0642.4,30.9
2021-01-26T02:36:00Z,00000200,01000000,0001.68,0001.35,0001.03,-000.04,0000.21,-000.05,0001.49,0001.06,0000.60,16.0,22.6,,00.0,0642.4,30.9
2021-01-26T02:37:00Z,00000200,01000000,0001.23,0001.24,0000.85,0000.14,0000.10,0000.20,0000.88,0001.15,0000.83,16.1,22.7,,00.0,0642.4,30.9
2021-01-26T02:38:00Z,00000200,01000000,0001.43,0001.46,0000.75,0000.08,0000.11,0000.16,0000.90,0000.67,0000.45,16.1,22.7,,00.0,0642.5,30.9
2021-01-26T02:39:00Z,00000200,01000000,0001.84,0001.14,0000.90,0000.00,0000.31,0000.07,0000.26,0000.16,0000.47,16.1,22.7,,00.0,0642.5,30.9
2021-01-26T02:40:00Z,00000200,01000000,0002.48,0001.39,0000.90,0000.20,0000.34,0000.04,0000.01,0000.61,0000.17,16.1,22.7,,00.0,0642.6,30.9
2021-01-26T02:41:00Z,00000200,01000000,0002.06,0001.50,0000.80,0000.09,0000.16,0000.09,0001.03,0000.44,0000.89,16.0,22.7,,00.0,0642.5,30.9
2021-01-26T02:42:00Z,00000200,01000000,0001.54,0001.34,0000.96,0000.17,0000.55,0000.33,0000.71,0000.88,0000.05,16.0,22.7,,00.0,0642.5,30.9
2021-01-26T02:43:00Z,00000200,01000000,0001.46,0001.19,0000.62,0000.74,0000.40,0000.02,0000.95,0000.07,0000.82,15.9,22.6,,00.0,0642.5,30.9
2021-01-26T02:44:00Z,00000200,01000000,0001.26,0001.26,0001.13,-000.14,0000.37,-000.00,0000.86,0001.49,0000.53,15.8,22.6,,00.0,0642.4,30.9
2021-01-26T02:45:00Z,00000200,01000000,0001.74,0001.30,0000.80,0000.49,0000.10,-000.09,0001.29,0000.80,0000.82,15.8,22.6,,00.0,0642.3,30.9
2021-01-26T02:46:00Z,00000200,01000000,0002.11,0001.74,0001.16,0000.62,0000.28,-000.10,0001.12,0001.08,0000.88,15.8,22.5,,00.0,0642.2,30.9
2021-01-26T02:47:00Z,00000200,01000000,0001.94,0001.17,0001.13,0000.42,-000.12,0000.10,0001.33,0001.02,0000.99,15.8,22.6,,00.0,0642.1,30.9
2021-01-26T02:48:00Z,00000200,01000000,0001.81,0001.44,0000.84,0000.22,-000.02,0000.29,0001.31,0001.21,0000.68,15.8,22.6,,00.0,0642.2,30.9
2021-01-26T02:49:00Z,00000200,01000000,0001.42,0001.66,0001.14,0000.15,0000.01,0000.23,0001.33,0001.31,0000.75,15.9,22.6,,00.0,0642.2,30.9
2021-01-26T02:50:00Z,00000200,01000000,0001.30,0001.01,0000.88,0000.51,0000.27,0000.14,0000.88,0001.24,0000.79,15.9,22.6,,00.0,0642.2,30.9
2021-01-26T02:51:00Z,00000200,01000000,0001.97,0001.29,0000.74,0000.09,0000.20,0000.21,0001.02,0000.31,0000.78,15.9,22.6,,00.0,0642.2,30.9
2021-01-26T02:52:00Z,00000200,01000000,0001.57,0001.30,0000.99,0000.29,0000.03,0000.06,0001.14,0000.80,0000.62,15.9,22.6,,00.0,0642.3,30.9
2021-01-26T02:53:00Z,00000200,01000000,0001.32,0001.31,0001.16,0000.65,-000.09,0000.10,0000.74,0000.98,0000.25,16.0,22.6,,00.0,0642.3,30.9
2021-01-26T02:54:00Z,00000200,01000000,0001.85,0001.45,0000.81,0000.41,0000.36,0000.17,0000.69,0000.57,0000.68,16.0,22.6,,00.0,0642.2,30.9
2021-01-26T02:55:00Z,00000200,01000000,0001.09,0001.69,0001.12,0000.78,0000.32,0000.32,0001.20,0001.11,0000.61,16.0,22.6,,00.0,0642.2,30.9
2021-01-26T02:56:00Z,00000200,01000000,0001.78,0001.30,0000.91,0000.16,0000.05,-000.05,0001.01,0001.08,0000.89,15.9,22.6,,00.0,0642.1,30.9
2021-01-26T02:57:00Z,00000200,41000000,,,,,,,0001.47,0001.13,0000.62,15.9,22.6,,00.0,0642.1,30.9
2021-01-26T02:58:00Z,00000200,61000000,,,,,,,-000.10,0000.04,0000.46,15.4,22.8,,00.0,0641.0,30.9
2021-01-26T02:59:00Z,00000200,21000000,,,,,,,0000.16,0000.12,-000.36,15.3,22.9,,00.0,0641.0,30.9
